Albuquerque, NM

8:24 PM MST on January 16, 2018 (GMT -0700)
Albuquerque International Sunport

Weather History for KABQ - March, 2014

Change the Weather History Date:

Wednesday, March 26, 2014

  Actual Average Record
Temperature  
Mean Temperature 55 °F 50 °F  
Max Temperature 68 °F 63 °F 85 °F (1971)
Min Temperature 41 °F 37 °F 16 °F (1936)
Degree Days  
Heating Degree Days 10 15  
Month to date heating degree days 417 454  
Since 1 July heating degree days 3560 3757  
Cooling Degree Days 0 0  
Month to date cooling degree days 0 0  
Year to date cooling degree days 0 0  
Growing Degree Days 4 (Base 50)    
Moisture  
Dew Point 29 °F    
Average Humidity 48    
Maximum Humidity 83    
Minimum Humidity 13    
Precipitation  
Precipitation T in 0.02 in 0.47 in (1984)
Month to date precipitation 0.22 0.48  
Year to date precipitation 0.40 1.34  
Snow  
Snow 0.00 in - - ()
Month to date snowfall T  
Since 1 July snowfall 6.6  
Snow Depth 0.00 in    
Sea Level Pressure  
Sea Level Pressure 29.66 in    
Wind  
Wind Speed 14 mph (SSW)    
Max Wind Speed 46 mph    
Max Gust Speed 61 mph    
Visibility 10 miles    
Events Rain    
T = Trace of Precipitation, MM = Missing Value Source: NWS Daily Summary

Daily Weather History Graph

Daily Weather History Graph

Search for Another Location

Airport or City:

Trip Planner

Search our weather history database for the weather conditions in past years. The results will help you decide how hot, cold, wet, or windy it might be!

Date:

Astronomy

Mar. 26, 2014 Rise Set
Actual Time 7:01 AM MDT 7:23 PM MDT
Civil Twilight 6:36 AM MDT 7:48 PM MDT
Nautical Twilight 6:06 AM MDT 8:18 PM MDT
Astronomical Twilight 5:36 AM MDT 8:48 PM MDT
Moon 4:02 AM MDT (3/26) 3:13 PM MDT (3/26)
Length of Visible Light 13h 12m
Length of Day
12h 21m
Waning Crescent, 21% of the Moon is Illuminated
Mar 26
Waning Crescent
Mar 30
New
Apr 7
First Quarter
Apr 15
Full
Apr 22
Last Quarter

Hourly Weather History & Observations

Time (MDT) Temp. Windchill Dew Point Humidity Pressure Visibility Wind Dir Wind Speed Gust Speed Precip Events Conditions
12:52 AM 50.0 °F - 39.9 °F 68% 29.84 in 10.0 mi SSE 13.8 mph - 0.00 in Rain Light Rain
1:11 AM 48.0 °F - 42.1 °F 80% 29.95 in 10.0 mi ESE 12.7 mph - 0.00 in   Overcast
1:52 AM 46.9 °F - 41.0 °F 80% 29.80 in 10.0 mi ESE 10.4 mph - 0.00 in   Mostly Cloudy
2:52 AM 45.0 °F 41.2 °F 39.0 °F 80% 29.76 in 10.0 mi SE 6.9 mph - N/A   Scattered Clouds
3:52 AM 45.0 °F 41.8 °F 37.0 °F 74% 29.73 in 10.0 mi SE 5.8 mph - N/A   Scattered Clouds
4:52 AM 43.0 °F 38.8 °F 36.0 °F 76% 29.74 in 10.0 mi ESE 6.9 mph - N/A   Scattered Clouds
5:52 AM 44.1 °F 41.5 °F 36.0 °F 73% 29.74 in 10.0 mi ESE 4.6 mph - N/A   Mostly Cloudy
6:52 AM 42.1 °F 38.4 °F 35.1 °F 76% 29.75 in 10.0 mi SE 5.8 mph - N/A   Scattered Clouds
7:52 AM 44.1 °F 39.5 °F 37.0 °F 76% 29.76 in 10.0 mi SE 8.1 mph - N/A   Scattered Clouds
8:52 AM 46.0 °F 41.0 °F 37.9 °F 73% 29.77 in 10.0 mi South 10.4 mph - N/A   Scattered Clouds
9:52 AM 52.0 °F - 37.0 °F 57% 29.76 in 10.0 mi South 11.5 mph - N/A   Scattered Clouds
10:52 AM 55.9 °F - 33.1 °F 42% 29.74 in 10.0 mi Variable 6.9 mph - N/A   Mostly Cloudy
11:52 AM 57.9 °F - 30.9 °F 36% 29.70 in 10.0 mi SSW 8.1 mph - N/A   Mostly Cloudy
12:52 PM 63.0 °F - 28.9 °F 28% 29.65 in 10.0 mi SSW 9.2 mph - N/A   Mostly Cloudy
1:52 PM 64.9 °F - 23.0 °F 20% 29.60 in 10.0 mi SSW 15.0 mph 26.5 mph N/A   Mostly Cloudy
2:52 PM 64.9 °F - 21.9 °F 19% 29.57 in 10.0 mi SW 18.4 mph 26.5 mph N/A   Overcast
3:52 PM 66.0 °F - 21.9 °F 19% 29.53 in 10.0 mi SW 24.2 mph 31.1 mph N/A   Mostly Cloudy
4:52 PM 66.9 °F - 16.0 °F 14% 29.51 in 10.0 mi WSW 23.0 mph 34.5 mph N/A   Mostly Cloudy
5:52 PM 66.9 °F - 15.1 °F 14% 29.48 in 10.0 mi West 26.5 mph 33.4 mph N/A   Scattered Clouds
6:52 PM 64.9 °F - 14.0 °F 14% 29.47 in 10.0 mi SW 24.2 mph 33.4 mph N/A   Scattered Clouds
7:52 PM 62.1 °F - 15.1 °F 16% 29.49 in 10.0 mi SW 16.1 mph - N/A   Scattered Clouds
8:52 PM 60.1 °F - 16.0 °F 18% 29.51 in 10.0 mi WSW 17.3 mph - N/A   Scattered Clouds
9:52 PM 57.9 °F - 19.0 °F 22% 29.54 in 10.0 mi West 25.3 mph 35.7 mph N/A   Scattered Clouds
10:52 PM 57.0 °F - 19.9 °F 24% 29.55 in 10.0 mi West 23.0 mph 43.7 mph N/A   Scattered Clouds
11:26 PM 53.1 °F - 28.0 °F 38% 29.75 in 5.0 mi West 46.0 mph 61.0 mph N/A   Widespread Dust
11:52 PM 52.0 °F - 28.9 °F 41% 29.62 in 10.0 mi West 21.9 mph 31.1 mph 0.00 in   Mostly Cloudy